Regional Weather Roundup
Issued by NWS

Home | Current Version | Previous Version | Text Only | Print | Product List | Glossary Off
Versions: 1 2 3 4 5 6 7 8 9 10 11 12 13 14 15 16 17 18 19 20 21 22 23 24 25 26 27 28 29 30 31 32 33 34 35 36 37 38 39 40 41 42 43 44 45 46 47 48 49 50

000
ASUS43 KFSD 021410
RWRSD

WEATHER ROUNDUP FOR SOUTH DAKOTA
NATIONAL WEATHER SERVICE SIOUX FALLS SD
900 AM CDT MON MAY 02 2016

NOTE: "FAIR" INDICATES FEW OR NO CLOUDS BELOW 12,000 FEET WITH NO
SIGNIFICANT WEATHER AND/OR OBSTRUCTIONS TO VISIBILITY.


SDZ001>005-009-010-012>017-021500-
NORTHWEST AND NORTH CENTRAL SOUTH DAKOTA

CITY           SKY/WX    TMP DP  RH WIND       PRES   REMARKS
BUFFALO          N/A     51  34  52 W12       30.06F
FAITH            N/A     48  34  58 W12       30.09F
MOBRIDGE       CLOUDY    48  38  68 CALM      30.04F
$$

SDZ012>016-024>037-041>051-057-063-072>074-021500-
SOUTHWEST AND SOUTH CENTRAL SOUTH DAKOTA

CITY           SKY/WX    TMP DP  RH WIND       PRES   REMARKS
RAPID CTY ARPT PTSUNNY   47  34  60 W8        30.14S
PIERRE         CLOUDY    42  35  76 W9        30.09F
CUSTER         SUNNY     40  27  59 VRB6      30.17S
ELLSWORTH AFB  CLOUDY    47  35  63 W6        30.14S
PHILIP         CLOUDY    42  36  79 W15       30.13F
PINE RIDGE     CLOUDY    40  35  83 NW3       30.17F
WINNER         FAIR      50  39  66 SW3       30.14F
$$

SDZ004>011-016>023-039-040-021500-
NORTHEAST SOUTH DAKOTA

CITY           SKY/WX    TMP DP  RH WIND       PRES   REMARKS
ABERDEEN       PTSUNNY   48  39  71 S6        30.09F
WATERTOWN      CLOUDY    47  38  71 CALM      30.10F
BROOKINGS      MOSUNNY   47  38  71 CALM      30.12S
SISSETON         N/A     58  35  42 W7        30.06F
$$

SDZ017-020-022-023-036>040-048>070-021500-
SOUTHEAST SOUTH DAKOTA

CITY           SKY/WX    TMP DP  RH WIND       PRES   REMARKS
SIOUX FALLS    MOSUNNY   51  40  65 NW3       30.13S
HURON          CLOUDY    47  39  74 MISG      30.12S
CHAMBERLAIN    PTSUNNY   44  39  82 W3        30.14S
MITCHELL       MOSUNNY   49  39  68 W3        30.14S
YANKTON        SUNNY     48  37  66 NW7       30.14S
$$

ABBREVIATIONS USED IN REMARKS
   TC - TEMPERATURE IN CELSIUS
  WCI - WIND CHILL INDEX
   HX - HEAT INDEX
  VSB - VISIBILITY





USA.gov is the U.S. government's official web portal to all federal, state and local government web resources and services.